FW2726 Weather Reports


Display with metric or nautical units.
time (UTC)temp
F
wind
direction
speed
MPH
gust
MPH
rain 1hr
in
rain 24hr
in
rain mn
in
humidity
%
barometer
mb
20260903063104 61 19 5.0 9.0 0.01 0.43 0.01 95 1003.7
20260903061607 61 359 2.0 12.0 0.01 0.43 0.01 95 1004.4
20260903060108 61 140 10.0 18.0 0.00 0.42 0.00 94 1004.1
20260903054607 61 146 7.0 13.0 0.02 0.42 0.42 94 1004.2
20260903053109 61 116 9.0 16.0 0.06 0.42 0.42 94 1003.6
20260903051617 61 149 11.0 24.0 0.11 0.42 0.42 94 1003.2
20260903050115 61 121 12.0 19.0 0.17 0.42 0.42 94 1003.7
20260903044606 62 108 9.0 14.0 0.19 0.40 0.40 93 1004.2
20260903043209 62 133 7.0 12.0 0.17 0.36 0.36 93 1005.4
20260903041609 62 152 6.0 11.0 0.15 0.31 0.31 93 1006.2
20260903040111 62 158 3.0 9.0 0.13 0.25 0.25 93 1006.1
20260903034606 62 95 4.0 12.0 0.10 0.21 0.21 93 1005.5
20260903033105 62 99 11.0 17.0 0.09 0.19 0.19 92 1005.5
20260903031606 62 125 14.0 19.0 0.07 0.16 0.16 91 1005.4
20260903030107 62 121 13.0 21.0 0.12 0.12 0.12 91 1005.0
20260903024608 63 123 15.0 26.0 0.11 0.11 0.11 89 1004.2
20260903023105 63 121 15.0 26.0 0.10 0.10 0.10 87 1004.0
20260903021608 65 114 18.0 33.0 0.09 0.09 0.09 83 1005.0
20260903020107 67 160 15.0 25.0 0.00 0.00 0.00 76 1005.5
20260903014604 68 135 14.0 20.0 0.00 0.00 0.00 72 1004.1
20260903013111 68 116 12.0 18.0 0.00 0.00 0.00 70 1004.2
20260903011608 69 120 9.0 13.0 0.00 0.00 0.00 69 1004.6
20260903010106 71 116 8.0 16.0 0.00 0.00 0.00 67 1004.7
20260903004608 72 131 11.0 18.0 0.00 0.00 0.00 64 1004.8
20260903003105 73 95 12.0 20.0 0.00 0.00 0.00 64 1004.9
20260903001608 72 108 10.0 15.0 0.00 0.00 0.00 67 1005.0
20260903000112 71 104 9.0 16.0 0.00 0.00 0.00 66 1005.2
20260902234618 72 134 9.0 14.0 0.00 0.00 0.00 69 1005.3
20260902233109 71 97 11.0 17.0 0.00 0.00 0.00 69 1005.1
20260902231624 70 109 9.0 14.0 0.00 0.00 0.00 71 1005.3
20260902230108 70 127 9.0 14.0 0.00 0.00 0.00 69 1005.5
20260902224613 71 137 9.0 13.0 0.00 0.00 0.00 68 1005.6
20260902223108 72 109 9.0 17.0 0.00 0.00 0.00 65 1005.8
20260902221609 73 146 12.0 23.0 0.00 0.00 0.00 61 1005.7
20260902220111 74 155 13.0 20.0 0.00 0.00 0.00 60 1005.9
20260902214604 75 135 16.0 25.0 0.00 0.00 0.00 59 1006.0
20260902213132 75 124 15.0 25.0 0.00 0.00 0.00 58 1006.0
20260902211610 76 142 12.0 26.0 0.00 0.00 0.00 57 1006.1
20260902210106 77 136 15.0 28.0 0.00 0.00 0.00 55 1006.0
20260902204608 76 165 18.0 29.0 0.00 0.00 0.00 55 1005.9
20260902203109 76 143 19.0 30.0 0.00 0.00 0.00 59 1005.9
20260902201608 74 98 15.0 25.0 0.00 0.00 0.00 60 1006.0
20260902200136 74 148 16.0 25.0 0.00 0.00 0.00 59 1006.0
20260902194611 74 127 10.0 17.0 0.00 0.00 0.00 57 1006.5
20260902193108 74 125 9.0 19.0 0.00 0.00 0.00 57 1006.8
20260902191614 75 95 14.0 24.0 0.00 0.00 0.00 53 1006.9
20260902190116 76 112 15.0 25.0 0.00 0.00 0.00 52 1006.8
20260902184608 75 128 14.0 24.0 0.00 0.00 0.00 56 1007.2
20260902183119 75 139 14.0 23.0 0.00 0.00 0.00 52 1007.4
20260902181609 77 181 17.0 31.0 0.00 0.00 0.00 51 1007.5
20260902180135 76 133 15.0 27.0 0.00 0.00 0.00 53 1007.5
20260902174612 75 120 15.0 25.0 0.00 0.00 0.00 55 1007.6
20260902173109 75 129 15.0 23.0 0.00 0.00 0.00 52 1007.6
20260902171610 75 128 15.0 30.0 0.00 0.00 0.00 51 1007.8
20260902170107 74 139 15.0 26.0 0.00 0.00 0.00 53 1007.8
20260902164609 73 176 16.0 24.0 0.00 0.00 0.00 55 1008.0
20260902163109 72 143 12.0 23.0 0.00 0.00 0.00 56 1008.0
20260902161608 72 126 15.0 25.0 0.00 0.00 0.00 56 1007.9
20260902160107 71 147 14.0 22.0 0.00 0.00 0.00 59 1008.0
20260902154617 69 145 14.0 22.0 0.00 0.00 0.00 59 1008.2
20260902153104 68 143 12.0 21.0 0.00 0.00 0.00 61 1008.0
20260902151608 67 148 12.0 22.0 0.00 0.00 0.00 65 1008.1
20260902150106 65 155 11.0 20.0 0.00 0.00 0.00 66 1008.2
20260902144607 63 160 13.0 20.0 0.00 0.00 0.00 68 1008.1
20260902143108 62 172 13.0 23.0 0.00 0.00 0.00 71 1008.4
20260902141617 60 151 13.0 22.0 0.00 0.00 0.00 73 1008.4
20260902140106 59 154 11.0 19.0 0.00 0.00 0.00 75 1008.5
20260902134608 58 154 11.0 19.0 0.00 0.00 0.00 77 1008.5
20260902133104 57 159 11.0 18.0 0.00 0.00 0.00 79 1008.5
20260902131609 56 152 10.0 16.0 0.00 0.00 0.00 81 1008.6
20260902130107 55 155 10.0 15.0 0.00 0.00 0.00 82 1008.7
20260902124606 54 150 8.0 12.0 0.00 0.00 0.00 83 1008.7
20260902123107 55 165 8.0 11.0 0.00 0.00 0.00 82 1008.8
20260902121606 55 155 8.0 14.0 0.00 0.00 0.00 82 1008.9
20260902120106 55 183 9.0 16.0 0.00 0.00 0.00 82 1009.0
20260902114606 56 155 10.0 15.0 0.00 0.00 0.00 81 1009.1
20260902113115 56 158 9.0 16.0 0.00 0.00 0.00 81 1009.2
20260902111605 56 165 10.0 17.0 0.00 0.00 0.00 81 1009.2
20260902110104 56 146 10.0 18.0 0.00 0.00 0.00 80 1009.2
20260902104605 57 156 10.0 18.0 0.00 0.00 0.00 79 1009.2
20260902103105 57 166 11.0 17.0 0.00 0.00 0.00 79 1009.2
20260902101623 57 170 12.0 19.0 0.00 0.00 0.00 80 1009.2
20260902094605 56 172 11.0 17.0 0.00 0.00 0.00 80 1009.5
20260902093104 56 147 10.0 16.0 0.00 0.00 0.00 79 1009.7
20260902091606 57 156 10.0 16.0 0.00 0.00 0.00 78 1009.7
20260902090128 57 168 9.0 16.0 0.00 0.00 0.00 77 1009.7
20260902084605 57 174 11.0 19.0 0.00 0.00 0.00 78 1009.8
20260902083117 57 176 10.0 18.0 0.00 0.00 0.00 79 1009.8
20260902081608 56 160 10.0 16.0 0.00 0.00 0.00 80 1010.0
20260902080111 56 156 11.0 16.0 0.00 0.00 0.00 81 1010.0
20260902074609 56 147 8.0 15.0 0.00 0.00 0.00 81 1010.2
20260902073105 57 148 8.0 13.0 0.00 0.00 0.00 80 1010.3
20260902071606 57 138 9.0 15.0 0.00 0.00 0.00 79 1010.2
20260902070111 57 166 9.0 15.0 0.00 0.00 0.00 79 1010.3
20260902064608 58 158 9.0 14.0 0.00 0.00 0.00 78 1010.3